FOO2218 LEBL-LEZL

Flight info

Callsign FOO2218
Flight time 1h 18m
Altitude 31000
Route SENIA DCT DORMI DCT CRETA DCT NEXAS DCT DISVU DCT ADUXO N975 CJN/N0367F130 N975 GOTOR DCT KAMPO DCT MONTO DCT MOLIN DCT HIJ
Aircraft A320/M-SDE3FGHIRWY/LB1

Departure

Time 2026-04-28 14:56
Airport Josep Tarradellas Barcelona-El Prat Airport (LEBL)

Arrival

Time 2026-04-28 16:14
Airport Seville Airport (LEZL)
Time Latitude Longitude Altitude Speed Heading
2026-04-28 14:33 41.28990 2.06906 18 ft 0 kts 156°
2026-04-28 14:49 41.28995 2.06903 18 ft 4 kts 155°
2026-04-28 14:50 41.29019 2.06887 20 ft 4 kts 142°
2026-04-28 14:50 41.29035 2.06863 21 ft 4 kts 95°
2026-04-28 14:50 41.29033 2.06845 19 ft 1 kts 57°
2026-04-28 14:50 41.29031 2.06843 20 ft 0 kts 57°
2026-04-28 14:53 41.29033 2.06846 19 ft 3 kts 57°
2026-04-28 14:53 41.29077 2.06892 18 ft 10 kts
2026-04-28 14:53 41.29140 2.06864 19 ft 9 kts 340°
2026-04-28 14:53 41.29197 2.06907 18 ft 13 kts 62°
2026-04-28 14:54 41.29232 2.07009 18 ft 13 kts 66°
2026-04-28 14:54 41.29310 2.07086 18 ft 15 kts 342°
2026-04-28 14:54 41.29349 2.07065 18 ft 5 kts 335°
2026-04-28 14:54 41.29395 2.07043 17 ft 11 kts 350°
2026-04-28 14:55 41.29462 2.07134 17 ft 19 kts 65°
2026-04-28 14:55 41.29588 2.07501 19 ft 83 kts 65°
2026-04-28 14:55 41.29939 2.08555 27 ft 161 kts 66°
2026-04-28 14:55 41.30445 2.10033 416 ft 185 kts 68°
2026-04-28 14:56 41.31001 2.11656 937 ft 203 kts 67°
2026-04-28 14:56 41.31616 2.13463 1393 ft 227 kts 67°
2026-04-28 14:56 41.32304 2.15477 1925 ft 249 kts 67°
2026-04-28 14:56 41.32886 2.17685 2685 ft 257 kts 88°
2026-04-28 14:57 41.32528 2.19981 3529 ft 258 kts 122°
2026-04-28 14:57 41.31855 2.21284 4176 ft 258 kts 127°
2026-04-28 14:57 41.30505 2.23945 5430 ft 262 kts 123°
2026-04-28 14:57 41.29561 2.26052 6286 ft 268 kts 121°
2026-04-28 14:58 41.28657 2.28253 7095 ft 274 kts 120°
2026-04-28 14:58 41.27792 2.30485 7933 ft 277 kts 118°
2026-04-28 14:58 41.26915 2.32828 8772 ft 282 kts 118°
2026-04-28 14:58 41.26059 2.35154 9568 ft 287 kts 117°
2026-04-28 14:59 41.25153 2.37634 9905 ft 311 kts 117°
2026-04-28 14:59 41.24151 2.40377 9988 ft 338 kts 117°
2026-04-28 14:59 41.23117 2.43203 9990 ft 338 kts 117°
2026-04-28 14:59 41.22097 2.45992 9991 ft 337 kts 117°
2026-04-28 15:00 41.21058 2.48836 9990 ft 336 kts 117°
2026-04-28 15:00 41.20040 2.51616 9994 ft 340 kts 117°
2026-04-28 15:00 41.18994 2.54462 10000 ft 340 kts 117°
2026-04-28 15:00 41.17943 2.57303 10534 ft 350 kts 117°
2026-04-28 15:01 41.16850 2.60211 11250 ft 355 kts 121°
2026-04-28 15:01 41.15379 2.62840 11932 ft 358 kts 136°
2026-04-28 15:01 41.13405 2.64862 12621 ft 360 kts 152°
2026-04-28 15:01 41.11084 2.66102 13300 ft 362 kts 168°
2026-04-28 15:02 41.08590 2.66471 13945 ft 363 kts 184°
2026-04-28 15:02 41.06058 2.66216 14571 ft 366 kts 187°
2026-04-28 15:02 41.03515 2.65935 15232 ft 368 kts 187°
2026-04-28 15:02 41.00958 2.65645 15874 ft 370 kts 189°
2026-04-28 15:03 40.98460 2.64836 16507 ft 370 kts 203°
2026-04-28 15:03 40.96210 2.63201 17139 ft 371 kts 218°
2026-04-28 15:03 40.94352 2.60836 17783 ft 373 kts 232°
2026-04-28 15:03 40.93008 2.57903 18396 ft 376 kts 246°
2026-04-28 15:04 40.92170 2.54615 18936 ft 379 kts 252°
2026-04-28 15:04 40.91394 2.51266 19491 ft 382 kts 252°
2026-04-28 15:04 40.90611 2.47900 20032 ft 385 kts 252°
2026-04-28 15:04 40.89816 2.44503 20564 ft 388 kts 252°
2026-04-28 15:05 40.89013 2.41087 21076 ft 391 kts 252°
2026-04-28 15:05 40.88200 2.37640 21567 ft 394 kts 252°
2026-04-28 15:05 40.87379 2.34170 22042 ft 397 kts 252°
2026-04-28 15:05 40.86552 2.30669 22538 ft 400 kts 252°
2026-04-28 15:06 40.85719 2.27145 23003 ft 404 kts 252°
2026-04-28 15:06 40.84881 2.23591 23444 ft 407 kts 252°
2026-04-28 15:06 40.84088 2.19990 23820 ft 411 kts 257°
2026-04-28 15:06 40.83695 2.16241 24183 ft 414 kts 266°
2026-04-28 15:07 40.83737 2.12427 24541 ft 417 kts 271°
2026-04-28 15:07 40.83854 2.08589 24906 ft 420 kts 271°
2026-04-28 15:07 40.83967 2.04723 25262 ft 422 kts 271°
2026-04-28 15:07 40.84002 2.03467 25376 ft 422 kts 271°
2026-04-28 15:08 40.84180 1.96949 25961 ft 426 kts 271°
2026-04-28 15:08 40.84285 1.93029 26308 ft 428 kts 271°
2026-04-28 15:08 40.84393 1.89098 26646 ft 430 kts 271°
2026-04-28 15:08 40.84499 1.85146 26971 ft 432 kts 271°
2026-04-28 15:09 40.84602 1.81228 27287 ft 434 kts 271°
2026-04-28 15:09 40.84701 1.77236 27602 ft 436 kts 271°
2026-04-28 15:09 40.84799 1.73233 27910 ft 437 kts 271°
2026-04-28 15:09 40.84865 1.70517 28112 ft 439 kts 271°
2026-04-28 15:10 40.84992 1.65174 28487 ft 441 kts 271°
2026-04-28 15:10 40.85090 1.61121 28762 ft 443 kts 271°
2026-04-28 15:10 40.85190 1.57048 29027 ft 444 kts 271°
2026-04-28 15:10 40.85289 1.52960 29282 ft 446 kts 271°
2026-04-28 15:11 40.85390 1.48861 29551 ft 446 kts 271°
2026-04-28 15:11 40.85489 1.44765 29796 ft 447 kts 271°
2026-04-28 15:11 40.85582 1.40665 30100 ft 446 kts 271°
2026-04-28 15:11 40.85344 1.36591 30369 ft 445 kts 257°
2026-04-28 15:12 40.84363 1.32733 30615 ft 445 kts 248°
2026-04-28 15:12 40.83160 1.28966 30865 ft 445 kts 247°
2026-04-28 15:12 40.81943 1.25215 30962 ft 443 kts 247°
2026-04-28 15:13 40.79514 1.17802 30976 ft 439 kts 247°
2026-04-28 15:13 40.77055 1.10312 30976 ft 450 kts 247°
2026-04-28 15:14 40.74557 1.02679 30972 ft 455 kts 247°
2026-04-28 15:14 40.72047 0.95009 30973 ft 456 kts 247°
2026-04-28 15:15 40.69543 0.87395 30972 ft 456 kts 247°
2026-04-28 15:15 40.67018 0.79748 30969 ft 455 kts 246°
2026-04-28 15:16 40.64489 0.72104 30967 ft 455 kts 246°
2026-04-28 15:16 40.61953 0.64466 30966 ft 455 kts 246°
2026-04-28 15:17 40.59412 0.56842 30962 ft 455 kts 246°
2026-04-28 15:17 40.56878 0.49228 30961 ft 455 kts 246°
2026-04-28 15:18 40.54762 0.42902 30961 ft 454 kts 246°
2026-04-28 15:18 40.52212 0.35314 30969 ft 453 kts 245°
2026-04-28 15:19 40.49666 0.27744 30983 ft 452 kts 245°
2026-04-28 15:19 40.47129 0.20195 30982 ft 452 kts 246°
2026-04-28 15:20 40.44574 0.12641 30977 ft 453 kts 246°
2026-04-28 15:20 40.42006 0.05084 30982 ft 454 kts 246°
2026-04-28 15:21 40.39441 -0.02479 30925 ft 455 kts 245°
2026-04-28 15:21 40.36858 -0.10071 30915 ft 455 kts 245°
2026-04-28 15:22 40.34273 -0.17648 30903 ft 455 kts 245°
2026-04-28 15:22 40.31682 -0.25211 30898 ft 455 kts 245°
2026-04-28 15:23 40.29081 -0.32767 30895 ft 455 kts 245°
2026-04-28 15:23 40.26501 -0.40265 30900 ft 455 kts 245°
2026-04-28 15:24 40.23895 -0.47814 30901 ft 456 kts 245°
2026-04-28 15:24 40.21270 -0.55391 30916 ft 458 kts 245°
2026-04-28 15:25 40.18637 -0.62982 30941 ft 459 kts 245°
2026-04-28 15:25 40.15996 -0.70582 30963 ft 459 kts 245°
2026-04-28 15:26 40.13341 -0.78171 30970 ft 459 kts 245°
2026-04-28 15:26 40.10691 -0.85746 30985 ft 458 kts 245°
2026-04-28 15:27 40.08043 -0.93299 30980 ft 457 kts 245°
2026-04-28 15:27 40.05388 -1.00842 30970 ft 457 kts 245°
2026-04-28 15:28 40.02734 -1.08376 30957 ft 457 kts 245°
2026-04-28 15:28 40.00070 -1.15912 30947 ft 457 kts 245°
2026-04-28 15:29 39.97411 -1.23384 30945 ft 457 kts 245°
2026-04-28 15:29 39.94737 -1.30892 30946 ft 457 kts 245°
2026-04-28 15:30 39.92067 -1.38405 30956 ft 457 kts 245°
2026-04-28 15:30 39.89387 -1.45913 30964 ft 457 kts 245°
2026-04-28 15:31 39.86702 -1.53396 30982 ft 457 kts 245°
2026-04-28 15:31 39.84012 -1.60898 30995 ft 457 kts 245°
2026-04-28 15:32 39.81321 -1.68373 30993 ft 456 kts 244°
2026-04-28 15:32 39.78619 -1.75845 30983 ft 456 kts 244°
2026-04-28 15:33 39.75923 -1.83313 30964 ft 457 kts 245°
2026-04-28 15:33 39.73217 -1.90776 30965 ft 457 kts 244°
2026-04-28 15:34 39.70502 -1.98223 30980 ft 456 kts 244°
2026-04-28 15:34 39.67791 -2.05664 30973 ft 455 kts 244°
2026-04-28 15:35 39.65080 -2.13089 30972 ft 455 kts 244°
2026-04-28 15:35 39.61002 -2.24207 30968 ft 455 kts 244°
2026-04-28 15:36 39.58299 -2.31556 30961 ft 455 kts 244°
2026-04-28 15:36 39.55574 -2.38944 30961 ft 455 kts 244°
2026-04-28 15:37 39.52839 -2.46330 30941 ft 455 kts 244°
2026-04-28 15:37 39.50096 -2.53712 30939 ft 455 kts 244°
2026-04-28 15:38 39.47353 -2.61100 30932 ft 455 kts 244°
2026-04-28 15:38 39.44602 -2.68479 30938 ft 455 kts 244°
2026-04-28 15:39 39.41843 -2.75858 30922 ft 456 kts 244°
2026-04-28 15:39 39.39081 -2.83243 30921 ft 456 kts 244°
2026-04-28 15:40 39.36314 -2.90633 30911 ft 456 kts 244°
2026-04-28 15:40 39.33539 -2.98005 30915 ft 457 kts 244°
2026-04-28 15:41 39.30756 -3.05382 30898 ft 457 kts 243°
2026-04-28 15:41 39.27968 -3.12755 30900 ft 457 kts 243°
2026-04-28 15:42 39.25171 -3.20136 30899 ft 458 kts 243°
2026-04-28 15:42 39.22391 -3.27461 30893 ft 458 kts 243°
2026-04-28 15:43 39.19585 -3.34838 30897 ft 458 kts 243°
2026-04-28 15:43 39.16769 -3.42197 30896 ft 458 kts 243°
2026-04-28 15:44 39.13946 -3.49565 30899 ft 458 kts 243°
2026-04-28 15:44 39.11130 -3.56928 30899 ft 459 kts 243°
2026-04-28 15:45 39.08304 -3.64292 30899 ft 459 kts 243°
2026-04-28 15:45 39.05468 -3.71649 30900 ft 459 kts 243°
2026-04-28 15:46 39.04042 -3.75328 30548 ft 460 kts 243°
2026-04-28 15:46 39.02626 -3.78970 30085 ft 447 kts 243°
2026-04-28 15:46 39.01268 -3.82471 29998 ft 429 kts 243°
2026-04-28 15:46 38.99962 -3.85839 29891 ft 412 kts 243°
2026-04-28 15:47 38.97408 -3.92421 29697 ft 415 kts 243°
2026-04-28 15:47 38.96136 -3.95697 29593 ft 416 kts 243°
2026-04-28 15:47 38.94841 -3.99024 29482 ft 417 kts 243°
2026-04-28 15:48 38.92247 -4.05684 29282 ft 417 kts 243°
2026-04-28 15:48 38.90944 -4.09019 29179 ft 417 kts 243°
2026-04-28 15:48 38.89640 -4.12346 29066 ft 418 kts 243°
2026-04-28 15:49 38.87023 -4.19016 28874 ft 419 kts 243°
2026-04-28 15:49 38.84400 -4.25702 28677 ft 419 kts 243°
2026-04-28 15:50 38.81772 -4.32375 28484 ft 420 kts 243°
2026-04-28 15:50 38.80454 -4.35717 28375 ft 420 kts 243°
2026-04-28 15:50 38.79134 -4.39063 28276 ft 421 kts 243°
2026-04-28 15:51 38.77811 -4.42414 28173 ft 421 kts 243°
2026-04-28 15:51 38.76488 -4.45754 28082 ft 421 kts 242°
2026-04-28 15:51 38.75157 -4.49113 27975 ft 422 kts 242°
2026-04-28 15:51 38.73829 -4.52459 27877 ft 422 kts 242°
2026-04-28 15:52 38.72498 -4.55817 27771 ft 422 kts 242°
2026-04-28 15:52 38.71170 -4.59167 27698 ft 423 kts 242°
2026-04-28 15:52 38.69837 -4.62526 27587 ft 423 kts 242°
2026-04-28 15:52 38.68501 -4.65889 27486 ft 423 kts 242°
2026-04-28 15:53 38.67161 -4.69251 27393 ft 424 kts 242°
2026-04-28 15:53 38.65823 -4.72606 27295 ft 424 kts 242°
2026-04-28 15:53 38.64485 -4.75961 27192 ft 421 kts 242°
2026-04-28 15:53 38.63173 -4.79244 27098 ft 419 kts 242°
2026-04-28 15:54 38.61826 -4.82594 27004 ft 418 kts 242°
2026-04-28 15:54 38.60514 -4.85854 26912 ft 417 kts 242°
2026-04-28 15:54 38.59189 -4.89146 26812 ft 417 kts 242°
2026-04-28 15:54 38.57867 -4.92438 26723 ft 416 kts 242°
2026-04-28 15:55 38.56547 -4.95730 26632 ft 416 kts 242°
2026-04-28 15:55 38.55228 -4.99012 26543 ft 419 kts 242°
2026-04-28 15:55 38.53865 -5.02370 26425 ft 433 kts 240°
2026-04-28 15:55 38.52178 -5.05586 26328 ft 438 kts 230°
2026-04-28 15:56 38.50058 -5.08382 26232 ft 439 kts 220°
2026-04-28 15:56 38.47584 -5.10645 26132 ft 438 kts 210°
2026-04-28 15:56 38.44824 -5.12301 26034 ft 439 kts 200°
2026-04-28 15:56 38.41913 -5.13453 25853 ft 438 kts 197°
2026-04-28 15:57 38.39008 -5.14573 24532 ft 434 kts 198°
2026-04-28 15:57 38.36117 -5.15702 22864 ft 435 kts 198°
2026-04-28 15:57 38.33243 -5.16835 21644 ft 426 kts 198°
2026-04-28 15:57 38.30473 -5.17926 21248 ft 410 kts 198°
2026-04-28 15:58 38.27765 -5.18988 20622 ft 406 kts 198°
2026-04-28 15:58 38.25073 -5.20042 20019 ft 402 kts 198°
2026-04-28 15:58 38.22408 -5.21082 19443 ft 399 kts 198°
2026-04-28 15:58 38.19766 -5.22110 18874 ft 396 kts 198°
2026-04-28 15:59 38.17141 -5.23130 18350 ft 392 kts 198°
2026-04-28 15:59 38.15416 -5.23799 17971 ft 390 kts 198°
2026-04-28 15:59 38.11966 -5.25140 17255 ft 385 kts 198°
2026-04-28 15:59 38.09422 -5.26129 16740 ft 381 kts 198°
2026-04-28 16:00 38.06901 -5.27110 16215 ft 376 kts 198°
2026-04-28 16:00 38.04411 -5.28079 15688 ft 373 kts 198°
2026-04-28 16:00 38.01937 -5.29042 15155 ft 371 kts 197°
2026-04-28 16:00 37.99476 -5.29996 14604 ft 369 kts 198°
2026-04-28 16:01 37.97019 -5.30947 14031 ft 368 kts 197°
2026-04-28 16:01 37.94573 -5.31891 13434 ft 367 kts 197°
2026-04-28 16:01 37.92139 -5.32833 12829 ft 365 kts 197°
2026-04-28 16:01 37.89726 -5.33768 12234 ft 361 kts 198°
2026-04-28 16:02 37.87332 -5.34693 11629 ft 358 kts 197°
2026-04-28 16:02 37.84984 -5.35597 11030 ft 356 kts 197°
2026-04-28 16:02 37.82607 -5.36512 10684 ft 346 kts 197°
2026-04-28 16:02 37.80352 -5.37379 10553 ft 331 kts 197°
2026-04-28 16:03 37.78232 -5.38215 10430 ft 317 kts 200°
2026-04-28 16:03 37.76296 -5.39415 10310 ft 304 kts 212°
2026-04-28 16:03 37.74661 -5.41033 10170 ft 294 kts 221°
2026-04-28 16:03 37.73159 -5.42733 10034 ft 288 kts 220°
2026-04-28 16:04 37.71665 -5.44416 9967 ft 287 kts 220°
2026-04-28 16:04 37.70171 -5.46092 9849 ft 287 kts 220°
2026-04-28 16:04 37.68659 -5.47784 9292 ft 293 kts 221°
2026-04-28 16:04 37.67657 -5.48906 9072 ft 289 kts 220°
2026-04-28 16:05 37.65661 -5.51116 8285 ft 283 kts 217°
2026-04-28 16:05 37.64001 -5.52400 7618 ft 278 kts 208°
2026-04-28 16:05 37.62303 -5.53556 6981 ft 275 kts 208°
2026-04-28 16:05 37.60643 -5.54691 6427 ft 270 kts 208°
2026-04-28 16:06 37.58990 -5.55825 5877 ft 271 kts 209°
2026-04-28 16:06 37.57348 -5.56947 5335 ft 267 kts 209°
2026-04-28 16:06 37.55721 -5.58060 4823 ft 265 kts 209°
2026-04-28 16:06 37.54109 -5.59164 4288 ft 263 kts 209°
2026-04-28 16:07 37.52534 -5.60239 3830 ft 257 kts 209°
2026-04-28 16:07 37.51056 -5.61245 3762 ft 227 kts 209°
2026-04-28 16:07 37.48587 -5.62928 3655 ft 179 kts 210°
2026-04-28 16:08 37.47576 -5.63617 3582 ft 154 kts 210°
2026-04-28 16:08 37.46672 -5.64235 3508 ft 144 kts 210°
2026-04-28 16:08 37.45806 -5.64826 3463 ft 140 kts 210°
2026-04-28 16:09 37.44106 -5.65986 3333 ft 139 kts 210°
2026-04-28 16:09 37.43257 -5.66567 3268 ft 139 kts 210°
2026-04-28 16:09 37.42511 -5.67332 3211 ft 139 kts 231°
2026-04-28 16:10 37.41941 -5.69551 2914 ft 137 kts 267°
2026-04-28 16:10 37.41890 -5.70739 2700 ft 135 kts 266°
2026-04-28 16:10 37.41844 -5.73179 2305 ft 140 kts 264°
2026-04-28 16:11 37.41832 -5.75215 1972 ft 141 kts 266°
2026-04-28 16:11 37.41824 -5.77708 1582 ft 142 kts 263°
2026-04-28 16:12 37.41819 -5.80147 1184 ft 137 kts 266°
2026-04-28 16:12 37.41816 -5.81344 999 ft 136 kts 265°
2026-04-28 16:13 37.41810 -5.83685 631 ft 133 kts 266°
2026-04-28 16:13 37.41807 -5.84839 430 ft 131 kts 269°
2026-04-28 16:13 37.41792 -5.87086 227 ft 129 kts 270°
2026-04-28 16:14 37.41792 -5.88772 103 ft 21 kts 271°
2026-04-28 16:14 37.41800 -5.89026 100 ft 30 kts 274°
2026-04-28 16:15 37.41798 -5.89563 94 ft 30 kts 272°
2026-04-28 16:15 37.41869 -5.89806 93 ft 30 kts 323°
2026-04-28 16:15 37.42043 -5.89905 95 ft 12 kts 338°
2026-04-28 16:16 37.42047 -5.89907 95 ft 0 kts 338°
2026-04-28 16:17 37.42048 -5.89908 95 ft 1 kts 338°
2026-04-28 16:17 37.42130 -5.89919 96 ft 22 kts 27°
2026-04-28 16:17 37.42281 -5.89740 94 ft 32 kts 44°
2026-04-28 16:18 37.42384 -5.89679 97 ft 12 kts 329°
2026-04-28 16:18 37.42444 -5.89719 95 ft 1 kts 10°
2026-04-28 16:18 37.42464 -5.89707 98 ft 1 kts 25°
2026-04-28 16:18 37.42472 -5.89699 96 ft 0 kts 41°